Location: *
(58.4167°N, 22.5000°E)
Time: 23:52:27
(UTC+00:00)

Cosmos 2263 Rocket - Pass Details

Date: 22 September 2019
Orbit: 824 x 848 km, 71.0° (Epoch: 17 October)

Event Time Altitude Azimuth Distance (km) Brightness Sun altitude
Exits shadow 23:41:57 12° 293° (WNW) 2,360 4.5 -29.4°
Maximum altitude 23:46:13 25° 345° (NNW) 1,635 4.1 -29.2°
Drops below altitude 10° 23:50:53 10° 41° (NE) 2,472 5.5 -28.9°
Sets 23:53:46 0° 54° (NE) 3,403 6.3 -28.8°
